Tracking 29892 objects as of 21-Nov-2024
HD Live streaming from Space Station
objects crossing your sky now

CZ-6A DEB

Track CZ-6A DEB now!
10-day predictions


NORAD ID: 56282
Int'l Code: 2022-151ADA
Perigee: 796.2 km
Apogee: 906.2 km
Inclination: 98.9 °
Period: 101.8 minutes
Semi major axis: 7222 km
RCS: Unknown
Launch date: November 11, 2022
Source: People's Republic of China (PRC)
Launch site: Taiyaun Space Center, China (TSC)

Note: This is SATELLITE DEBRIS
Your satellite tracking list
Your tracking list is empty




NASA's NSSDC Master Catalog

Two Line Element Set (TLE):
1 56282U 22151ADA 24324.43876252  .00005390  00000-0  27554-2 0  9998
2 56282  98.8588 326.8348 0076155 199.1771 160.6532 14.14484288 86106
Source of the keplerian elements: AFSPC